E0445 Weather Reports


Display with metric or nautical units.
time (UTC)temp
F
wind
direction
speed
MPH
gust
MPH
rain 1hr
in
rain 24hr
in
rain mn
in
humidity
%
barometer
mb
20260509064528 45 0 0.0 2.0 0.06 0.09 0.08 95 1011.8
20260509064014 45 0 0.0 2.0 0.05 0.08 0.07 95 1011.8
20260509063509 45 0 0.0 2.0 0.04 0.07 0.06 95 1012.0
20260509063029 45 0 0.0 2.0 0.05 0.07 0.06 95 1012.0
20260509062512 45 185 0.0 2.0 0.04 0.06 0.05 95 1011.9
20260509062013 45 185 0.0 3.0 0.04 0.06 0.05 94 1012.0
20260509061528 45 0 1.0 3.0 0.04 0.05 0.04 94 1012.0
20260509061018 45 185 1.0 3.0 0.04 0.05 0.04 94 1011.9
20260509060514 45 185 0.0 2.0 0.03 0.04 0.03 94 1011.9
20260509060029 45 0 0.0 0.0 0.03 0.04 0.03 94 1011.7
20260509055515 45 0 0.0 1.0 0.03 0.05 0.03 94 1011.6
20260509055014 45 0 0.0 1.0 0.03 0.05 0.03 94 1011.5
20260509054532 46 0 0.0 0.0 0.02 0.04 0.02 94 1011.6
20260509054013 45 0 0.0 0.0 0.02 0.04 0.02 93 1011.6
20260509053510 45 0 0.0 0.0 0.02 0.04 0.02 93 1011.7
20260509053035 45 0 0.0 0.0 0.01 0.03 0.01 93 1011.7
20260509052512 45 0 0.0 0.0 0.01 0.03 0.01 93 1011.7
20260509052012 45 0 0.0 0.0 0.01 0.03 0.01 93 1011.7
20260509051537 45 0 0.0 2.0 0.00 0.02 0.00 93 1011.8
20260509051010 45 0 0.0 2.0 0.00 0.02 0.00 93 1011.9
20260509050512 45 0 0.0 0.0 0.00 0.02 0.00 93 1011.8
20260509050029 45 0 0.0 0.0 0.00 0.02 0.00 93 1011.7
20260509045514 45 0 0.0 0.0 0.00 0.11 0.00 93 1011.6
20260509045013 45 0 0.0 0.0 0.00 0.11 0.00 93 1011.6
20260509044527 45 0 0.0 0.0 0.00 0.11 0.00 93 1011.8
20260509044010 45 0 0.0 0.0 0.00 0.11 0.00 92 1011.8
20260509043511 45 0 0.0 0.0 0.00 0.11 0.00 92 1011.9
20260509043028 45 0 0.0 0.0 0.00 0.11 0.00 92 1011.9
20260509042512 45 0 0.0 0.0 0.00 0.11 0.00 92 1012.0
20260509042013 45 0 0.0 0.0 0.00 0.11 0.00 92 1012.0
20260509041528 44 0 0.0 0.0 0.00 0.11 0.00 92 1011.9
20260509041012 44 0 0.0 0.0 0.00 0.11 0.00 92 1012.0
20260509040514 44 0 0.0 0.0 0.00 0.11 0.00 92 1012.0
20260509040030 44 0 0.0 0.0 0.00 0.11 0.00 92 1012.1
20260509035512 44 0 0.0 0.0 0.00 0.11 0.11 91 1012.1
20260509035012 44 0 0.0 0.0 0.00 0.11 0.11 91 1012.1
20260509034530 44 0 0.0 2.0 0.00 0.11 0.11 91 1012.0
20260509034010 43 0 0.0 2.0 0.00 0.11 0.11 91 1012.0
20260509033512 43 185 1.0 2.0 0.00 0.11 0.11 90 1012.0
20260509033026 43 0 0.0 2.0 0.00 0.11 0.11 90 1012.0
20260509032513 43 0 0.0 2.0 0.00 0.11 0.11 90 1012.0
20260509032011 44 0 0.0 0.0 0.00 0.11 0.11 90 1011.9
20260509031532 43 0 0.0 2.0 0.00 0.11 0.11 89 1011.9
20260509031016 44 0 0.0 3.0 0.00 0.11 0.11 89 1012.0
20260509030513 44 185 1.0 3.0 0.00 0.11 0.11 88 1012.0
20260509030030 44 185 2.0 3.0 0.00 0.11 0.11 88 1011.8
20260509025512 44 0 0.0 0.0 0.00 0.11 0.11 88 1011.9
20260509025011 45 0 0.0 0.0 0.00 0.11 0.11 88 1011.8
20260509024527 45 0 0.0 0.0 0.00 0.11 0.11 88 1011.9
20260509024010 44 0 0.0 0.0 0.00 0.11 0.11 88 1011.9
20260509023517 45 0 0.0 0.0 0.00 0.11 0.11 88 1011.9
20260509023030 45 0 0.0 2.0 0.00 0.11 0.11 87 1012.0
20260509022512 45 0 0.0 2.0 0.00 0.11 0.11 87 1011.9
20260509022012 45 185 1.0 2.0 0.00 0.11 0.11 87 1011.8
20260509021527 45 185 0.0 2.0 0.00 0.11 0.11 87 1011.9
20260509021014 45 0 0.0 0.0 0.00 0.11 0.11 86 1012.1
20260509020513 45 0 0.0 0.0 0.00 0.11 0.11 86 1012.0
20260509020033 45 0 0.0 0.0 0.00 0.11 0.11 85 1011.9
20260509015513 46 0 0.0 0.0 0.00 0.11 0.11 85 1012.0
20260509015010 46 0 0.0 0.0 0.00 0.11 0.11 84 1011.8
20260509014538 46 0 0.0 0.0 0.00 0.11 0.11 84 1011.8
20260509014014 46 0 0.0 0.0 0.00 0.11 0.11 83 1011.8
20260509013510 47 0 0.0 0.0 0.00 0.11 0.11 83 1011.8
20260509013030 47 0 0.0 0.0 0.00 0.11 0.11 82 1011.8
20260509012512 48 0 0.0 0.0 0.00 0.11 0.11 81 1011.7
20260509012011 48 0 0.0 2.0 0.00 0.11 0.11 81 1011.8
20260509011528 48 0 0.0 2.0 0.00 0.11 0.11 81 1011.7
20260509011013 48 0 1.0 2.0 0.00 0.11 0.11 81 1011.7
20260509010512 48 185 1.0 2.0 0.00 0.11 0.11 81 1011.7
20260509010028 48 0 0.0 2.0 0.00 0.11 0.11 81 1011.5
20260509005516 48 0 0.0 3.0 0.00 0.11 0.11 81 1011.5
20260509005012 48 186 0.0 3.0 0.00 0.11 0.11 81 1011.4
20260509004528 48 0 0.0 2.0 0.00 0.11 0.11 81 1011.3
20260509004013 48 0 0.0 2.0 0.00 0.11 0.11 80 1011.3
20260509003510 49 0 0.0 2.0 0.00 0.11 0.11 80 1011.2
20260509003032 49 0 0.0 3.0 0.00 0.11 0.11 80 1011.1
20260509002509 49 0 1.0 3.0 0.00 0.11 0.11 80 1011.2
20260509002014 49 185 1.0 3.0 0.00 0.11 0.11 80 1011.2
20260509001530 49 185 1.0 4.0 0.00 0.11 0.11 80 1011.2
20260509001012 49 185 0.0 4.0 0.00 0.11 0.11 80 1011.3
20260509000512 49 185 0.0 2.0 0.00 0.11 0.11 80 1011.2
20260509000029 49 0 0.0 1.0 0.00 0.11 0.11 79 1011.3
20260508235512 49 185 0.0 1.0 0.00 0.11 0.11 79 1011.2
20260508235011 50 0 0.0 2.0 0.00 0.11 0.11 78 1011.1
20260508234528 50 0 0.0 3.0 0.00 0.11 0.11 77 1011.0
20260508234009 50 185 1.0 4.0 0.00 0.11 0.11 76 1011.0
20260508233510 50 185 0.0 4.0 0.00 0.11 0.11 76 1010.8
20260508233034 51 186 2.0 6.0 0.00 0.11 0.11 74 1010.8
20260508232514 51 186 3.0 6.0 0.00 0.11 0.11 73 1010.7
20260508232018 51 177 3.0 7.0 0.00 0.11 0.11 73 1010.6
20260508231533 52 178 4.0 7.0 0.00 0.11 0.11 72 1010.6
20260508231013 52 190 3.0 7.0 0.00 0.11 0.11 72 1010.6
20260508230512 52 182 4.0 9.0 0.00 0.11 0.11 71 1010.7
20260508230027 52 192 3.0 9.0 0.00 0.11 0.11 71 1010.7
20260508225512 52 217 3.0 9.0 0.00 0.11 0.11 70 1010.8
20260508225013 53 182 4.0 9.0 0.00 0.11 0.11 68 1010.7
20260508224528 53 188 4.0 9.0 0.00 0.11 0.11 67 1010.7
20260508224009 53 200 4.0 10.0 0.00 0.11 0.11 66 1010.7
20260508223514 54 182 4.0 8.0 0.00 0.11 0.11 63 1010.8
20260508223030 54 230 3.0 12.0 0.00 0.11 0.11 61 1010.8
20260508222512 54 218 5.0 12.0 0.00 0.11 0.11 60 1010.7
20260508222012 54 207 4.0 9.0 0.00 0.11 0.11 60 1010.8
20260508221531 54 212 5.0 9.0 0.00 0.11 0.11 60 1010.7
20260508221012 54 194 4.0 8.0 0.00 0.11 0.11 59 1010.7
20260508220514 54 275 4.0 8.0 0.00 0.11 0.11 58 1010.6
20260508220028 54 273 3.0 6.0 0.00 0.11 0.11 58 1010.5
20260508215512 54 309 2.0 9.0 0.00 0.11 0.11 58 1010.4
20260508215013 54 209 4.0 9.0 0.00 0.11 0.11 59 1010.6
20260508214529 54 294 2.0 7.0 0.00 0.11 0.11 59 1010.7
20260508214015 54 267 2.0 9.0 0.00 0.11 0.11 58 1010.7
20260508213510 53 269 4.0 12.0 0.00 0.11 0.11 58 1010.8
20260508213034 53 304 5.0 11.0 0.00 0.11 0.11 58 1010.8
20260508212512 53 275 4.0 10.0 0.00 0.11 0.11 60 1010.8
20260508212010 53 271 4.0 10.0 0.00 0.11 0.11 59 1010.8
20260508211536 53 273 5.0 9.0 0.00 0.11 0.11 60 1010.9
20260508211013 53 305 3.0 9.0 0.00 0.11 0.11 60 1010.8
20260508210510 53 350 4.0 9.0 0.00 0.11 0.11 59 1010.7
20260508210030 53 276 4.0 9.0 0.00 0.11 0.11 60 1010.8
20260508205512 53 13 2.0 8.0 0.00 0.11 0.11 61 1010.7
20260508205013 53 338 4.0 8.0 0.00 0.11 0.11 60 1010.8
20260508204530 53 260 3.0 8.0 0.00 0.11 0.11 59 1010.8
20260508204012 54 275 4.0 11.0 0.00 0.11 0.11 60 1010.9
20260508203513 54 300 2.0 11.0 0.00 0.11 0.11 60 1010.8
20260508203030 54 327 6.0 12.0 0.00 0.11 0.11 60 1010.9
20260508202513 54 306 5.0 13.0 0.00 0.11 0.11 61 1010.9
20260508202010 54 280 6.0 13.0 0.00 0.11 0.11 60 1010.9
20260508201531 54 360 3.0 8.0 0.00 0.11 0.11 60 1010.9
20260508201011 53 329 3.0 8.0 0.00 0.11 0.11 60 1010.9
20260508200512 53 288 2.0 8.0 0.00 0.11 0.11 61 1011.1
20260508200031 53 348 1.0 8.0 0.00 0.11 0.11 65 1011.2
20260508195511 53 268 4.0 11.0 0.00 0.11 0.11 63 1011.3
20260508195016 54 335 5.0 10.0 0.00 0.11 0.11 62 1011.1
20260508194530 55 233 3.0 10.0 0.00 0.11 0.11 62 1011.2
20260508194012 54 301 4.0 10.0 0.00 0.11 0.11 64 1011.2
20260508193512 53 218 4.0 7.0 0.00 0.11 0.11 68 1011.1
20260508193030 52 215 2.0 5.0 0.00 0.11 0.11 68 1011.2
20260508192513 51 268 3.0 5.0 0.00 0.11 0.11 69 1011.3
20260508192013 51 219 1.0 12.0 0.00 0.11 0.11 71 1011.4
20260508191536 51 279 2.0 12.0 0.00 0.11 0.11 70 1011.3
20260508191012 51 231 5.0 12.0 0.00 0.11 0.11 70 1011.4
20260508190509 51 304 5.0 10.0 0.00 0.11 0.11 73 1011.5
20260508190030 51 195 6.0 10.0 0.00 0.11 0.11 73 1011.5
20260508185512 51 204 6.0 9.0 0.00 0.11 0.11 73 1011.4
20260508185012 51 284 3.0 10.0 0.00 0.11 0.11 74 1011.5
20260508184532 51 210 4.0 10.0 0.00 0.11 0.11 74 1011.6
20260508184013 52 222 5.0 10.0 0.00 0.11 0.11 76 1011.8
20260508183510 51 244 3.0 11.0 0.00 0.11 0.11 75 1011.8
20260508183028 50 254 5.0 11.0 0.00 0.11 0.11 76 1011.8
20260508182513 50 295 4.0 11.0 0.01 0.11 0.11 79 1011.7
20260508182013 50 229 5.0 11.0 0.01 0.11 0.11 81 1012.0
20260508181532 48 155 3.0 9.0 0.01 0.11 0.11 81 1012.2
20260508181012 47 211 5.0 9.0 0.01 0.11 0.11 82 1012.2
20260508180513 47 217 4.0 9.0 0.01 0.11 0.11 82 1012.2
20260508180028 46 253 4.0 9.0 0.01 0.11 0.11 82 1012.1
20260508175512 47 179 5.0 14.0 0.01 0.11 0.11 80 1012.1
20260508175012 47 239 7.0 16.0 0.01 0.11 0.11 79 1012.0
20260508174530 48 239 7.0 16.0 0.01 0.11 0.11 76 1012.1
20260508174012 49 237 5.0 14.0 0.01 0.11 0.11 72 1012.0
20260508173512 50 288 2.0 11.0 0.01 0.11 0.11 71 1011.9
20260508173029 50 279 7.0 12.0 0.01 0.11 0.11 70 1012.0
20260508172512 50 351 5.0 12.0 0.00 0.10 0.10 74 1011.9
20260508172010 50 352 5.0 11.0 0.00 0.10 0.10 71 1011.9
20260508171529 51 269 5.0 13.0 0.00 0.10 0.10 71 1011.9
20260508171012 50 282 6.0 14.0 0.00 0.10 0.10 71 1011.9
20260508170510 50 342 8.0 14.0 0.00 0.10 0.10 70 1011.9
20260508170035 50 263 5.0 12.0 0.00 0.10 0.10 71 1011.9
20260508165511 50 337 5.0 14.0 0.00 0.10 0.10 72 1011.9
20260508165010 50 271 7.0 14.0 0.00 0.10 0.10 71 1011.9
20260508164530 50 301 6.0 12.0 0.00 0.10 0.10 73 1011.9
20260508164011 50 324 8.0 13.0 0.00 0.10 0.10 72 1011.9
20260508163512 50 256 8.0 14.0 0.00 0.10 0.10 73 1011.9
20260508163029 49 281 7.0 14.0 0.00 0.10 0.10 72 1011.9
20260508162512 48 257 8.0 14.0 0.00 0.10 0.10 73 1012.0
20260508162011 49 313 5.0 12.0 0.00 0.10 0.10 74 1011.9
20260508161529 49 316 4.0 10.0 0.00 0.10 0.10 74 1011.9
20260508161012 49 300 1.0 8.0 0.00 0.10 0.10 78 1011.8
20260508160509 47 327 3.0 8.0 0.00 0.10 0.10 77 1011.8
20260508160028 47 248 4.0 10.0 0.00 0.10 0.10 77 1011.8
20260508155512 47 212 6.0 10.0 0.00 0.10 0.10 77 1011.8
20260508155010 47 182 4.0 10.0 0.00 0.10 0.10 79 1011.9
20260508154537 46 268 5.0 10.0 0.00 0.10 0.10 80 1011.9
20260508154011 47 203 3.0 9.0 0.00 0.10 0.10 81 1012.0
20260508153511 46 229 5.0 9.0 0.00 0.10 0.10 81 1012.1
20260508153030 46 200 2.0 5.0 0.00 0.10 0.10 83 1012.1
20260508152513 46 270 1.0 3.0 0.00 0.10 0.10 83 1012.1
20260508152011 45 261 1.0 3.0 0.00 0.10 0.10 83 1012.1
20260508151533 45 248 1.0 4.0 0.00 0.10 0.10 82 1012.1
20260508151012 45 222 2.0 4.0 0.00 0.10 0.10 82 1012.0
20260508150516 44 241 2.0 4.0 0.00 0.10 0.10 82 1012.0
20260508150029 44 0 0.0 4.0 0.00 0.10 0.10 81 1012.1
20260508145512 44 258 1.0 5.0 0.00 0.10 0.10 81 1012.1
20260508145011 44 310 2.0 9.0 0.00 0.10 0.10 81 1012.2
20260508144529 44 208 2.0 10.0 0.00 0.10 0.10 81 1012.2
20260508144009 44 215 4.0 10.0 0.00 0.10 0.10 80 1012.3
20260508143513 44 272 4.0 7.0 0.00 0.10 0.10 82 1012.2
20260508143036 44 213 2.0 8.0 0.00 0.10 0.10 83 1012.2
20260508142511 44 202 1.0 11.0 0.00 0.10 0.10 83 1012.1
20260508142012 44 208 3.0 12.0 0.00 0.10 0.10 84 1012.0
20260508141530 44 170 5.0 12.0 0.00 0.10 0.10 85 1011.9
20260508141011 45 157 3.0 10.0 0.00 0.10 0.10 87 1011.9
20260508140512 44 250 4.0 11.0 0.00 0.10 0.10 86 1012.0
20260508140035 43 197 7.0 11.0 0.00 0.10 0.10 85 1012.0
20260508135510 44 215 6.0 10.0 0.00 0.10 0.10 85 1012.3
20260508135013 44 190 3.0 10.0 0.00 0.10 0.10 83 1012.1
20260508134528 44 209 4.0 10.0 0.00 0.10 0.10 84 1012.2
20260508134009 43 171 3.0 10.0 0.00 0.10 0.10 86 1012.2
20260508133512 43 190 3.0 8.0 0.00 0.10 0.10 87 1012.1
20260508133026 43 215 4.0 8.0 0.00 0.10 0.10 88 1012.3
20260508132513 43 210 1.0 6.0 0.00 0.10 0.10 87 1012.3
20260508132012 43 213 2.0 7.0 0.00 0.10 0.10 88 1012.1
20260508131528 42 206 2.0 7.0 0.00 0.10 0.10 88 1012.1
20260508131015 42 202 2.0 6.0 0.00 0.10 0.10 89 1012.2
20260508130511 42 225 2.0 5.0 0.00 0.10 0.10 90 1012.2
20260508130040 42 255 2.0 5.0 0.00 0.10 0.10 89 1012.1
20260508125512 42 242 2.0 7.0 0.00 0.10 0.10 90 1012.3
20260508125012 42 234 4.0 7.0 0.00 0.10 0.10 90 1012.2
20260508124534 42 191 2.0 5.0 0.00 0.10 0.10 92 1012.1
20260508124012 42 249 2.0 4.0 0.00 0.10 0.10 93 1012.1
20260508123510 42 237 1.0 4.0 0.00 0.10 0.10 94 1012.1
20260508123035 42 0 0.0 3.0 0.00 0.10 0.10 95 1012.2
20260508122511 41 0 0.0 3.0 0.00 0.10 0.10 95 1012.0
20260508122013 41 0 1.0 3.0 0.00 0.10 0.10 97 1012.1
20260508121527 41 0 0.0 0.0 0.00 0.10 0.10 96 1012.1
20260508121011 40 0 0.0 0.0 0.00 0.10 0.10 97 1012.1
20260508120513 39 0 0.0 0.0 0.00 0.10 0.10 97 1012.2
20260508120028 39 0 0.0 0.0 0.00 0.10 0.10 97 1012.2
20260508115514 38 0 0.0 1.0 0.00 0.10 0.10 97 1012.1
20260508115012 38 0 0.0 1.0 0.00 0.10 0.10 96 1012.2
20260508114528 38 0 0.0 1.0 0.00 0.10 0.10 96 1012.2
20260508114011 37 0 0.0 1.0 0.00 0.10 0.10 96 1012.3
20260508113512 37 0 0.0 1.0 0.00 0.10 0.10 96 1012.1
20260508113030 37 0 0.0 1.0 0.00 0.10 0.10 96 1012.3
20260508112512 36 0 0.0 1.0 0.00 0.10 0.10 96 1012.3
20260508112009 36 0 0.0 2.0 0.00 0.10 0.10 96 1012.1
20260508111529 35 0 0.0 2.0 0.00 0.10 0.10 96 1012.2
20260508111013 35 193 0.0 2.0 0.00 0.10 0.10 96 1012.4
20260508110510 35 0 0.0 1.0 0.00 0.10 0.10 96 1012.1
20260508110031 34 0 0.0 3.0 0.00 0.10 0.10 96 1012.0
20260508105513 34 0 0.0 3.0 0.00 0.10 0.10 96 1012.1
20260508105012 34 0 0.0 2.0 0.00 0.10 0.10 96 1012.1
20260508104529 34 0 0.0 2.0 0.00 0.10 0.10 95 1012.0
20260508104014 34 235 0.0 2.0 0.00 0.10 0.10 95 1011.9
20260508103512 34 0 0.0 0.0 0.00 0.10 0.10 95 1011.8
20260508103038 34 0 0.0 0.0 0.00 0.10 0.10 95 1011.9
20260508102512 34 0 0.0 0.0 0.00 0.10 0.10 95 1011.8
20260508102011 34 0 0.0 0.0 0.00 0.10 0.10 95 1011.6
20260508101528 34 0 0.0 0.0 0.00 0.10 0.10 95 1011.8
20260508101013 34 0 0.0 0.0 0.00 0.10 0.10 96 1011.9
20260508100510 34 0 0.0 0.0 0.00 0.10 0.10 95 1011.9
20260508100027 34 0 0.0 0.0 0.00 0.10 0.10 95 1011.8
20260508095510 34 0 0.0 0.0 0.00 0.10 0.10 95 1011.7
20260508095012 35 0 0.0 0.0 0.00 0.10 0.10 95 1011.8
20260508094541 35 0 0.0 0.0 0.00 0.10 0.10 95 1011.7
20260508094009 34 0 0.0 0.0 0.00 0.10 0.10 95 1011.8
20260508093512 34 0 0.0 0.0 0.00 0.10 0.10 95 1011.8
20260508093028 34 0 0.0 0.0 0.00 0.10 0.10 95 1011.8
20260508092601 35 0 0.0 0.0 0.00 0.10 0.10 95 1011.7
20260508092514 35 0 0.0 0.0 0.00 0.10 0.10 95 1011.7
20260508092012 35 0 0.0 0.0 0.00 0.10 0.10 95 1011.7
20260508091542 35 0 0.0 0.0 0.00 0.10 0.10 95 1011.7
20260508091011 35 0 0.0 0.0 0.00 0.10 0.10 95 1011.8
20260508090509 35 0 0.0 0.0 0.00 0.10 0.10 95 1011.8
20260508090045 35 0 0.0 0.0 0.00 0.10 0.10 95 1011.7
20260508085512 35 0 0.0 0.0 0.00 0.10 0.10 95 1011.7
20260508085012 35 0 0.0 0.0 0.00 0.10 0.10 95 1011.7
20260508084530 35 0 0.0 0.0 0.00 0.10 0.10 95 1011.6
20260508084013 35 0 0.0 0.0 0.00 0.10 0.10 94 1011.6
20260508083511 35 0 0.0 0.0 0.00 0.10 0.10 95 1011.6
20260508083027 35 0 0.0 0.0 0.00 0.10 0.10 95 1011.5
20260508082514 35 0 0.0 0.0 0.00 0.10 0.10 95 1011.5
20260508082012 36 0 0.0 0.0 0.00 0.10 0.10 94 1011.3
20260508081533 36 0 0.0 0.0 0.00 0.10 0.10 95 1011.2
20260508081015 36 0 0.0 0.0 0.00 0.10 0.10 94 1011.0
20260508080512 37 0 0.0 0.0 0.00 0.10 0.10 95 1011.3
20260508080028 37 0 0.0 0.0 0.00 0.10 0.10 95 1011.3
20260508075513 38 0 0.0 1.0 0.00 0.10 0.10 95 1011.4
20260508075011 38 0 0.0 1.0 0.00 0.10 0.10 95 1011.4
20260508074528 38 0 0.0 0.0 0.00 0.10 0.10 94 1011.3
20260508074013 38 0 0.0 1.0 0.00 0.10 0.10 95 1011.3
20260508073509 38 0 0.0 1.0 0.00 0.10 0.10 95 1011.4
20260508073034 38 0 0.0 1.0 0.00 0.10 0.10 94 1011.4
20260508072508 38 0 0.0 2.0 0.00 0.10 0.10 94 1011.4
20260508072011 38 0 0.0 2.0 0.00 0.10 0.10 94 1011.4
20260508071531 38 236 0.0 3.0 0.00 0.10 0.10 94 1011.5
20260508071012 38 236 1.0 3.0 0.00 0.10 0.10 94 1011.4
20260508070513 38 236 1.0 3.0 0.00 0.10 0.10 94 1011.4
20260508070041 38 0 0.0 1.0 0.00 0.10 0.10 94 1011.3
20260508065515 38 0 0.0 3.0 0.00 0.10 0.10 94 1011.2
20260508065012 38 0 0.0 3.0 0.00 0.10 0.10 94 1011.3